Regional Weather Roundup
Issued by NWS

Home | Current Version | Previous Version | Graphics & Text | Print | Product List | Glossary On
Versions: 1 2 3 4 5 6 7 8 9 10 11 12 13 14 15 16 17 18 19 20 21 22 23 24 25 26 27 28 29 30 31 32 33 34 35 36 37 38 39 40 41 42 43 44 45 46 47 48 49 50
000
ASUS45 KABQ 060001
RWRNM
NEW MEXICO REGIONAL WEATHER ROUNDUP
NATIONAL WEATHER SERVICE ALBUQUERQUE NM
500 PM MST MON DEC 05 2016

NOTE: "FAIR" MEANS FEW OR NO CLOUDS BELOW 12,000 FEET AGL WITH NO
       SIGNIFICANT WEATHER OR OBSTRUCTIONS TO VISION.

      THIS PRODUCT IS RELEASED AS TWO VERSIONS.  ONE VERSION NEAR
      THE TOP OF THE HOUR CONTAINING PRELIMINARY DATA FROM ALBUQUERQUE
      AND OTHER STATIONS.  A FINAL VERSION WITH ADDITIONAL DATA IS
      ISSUED ABOUT 10 MINUTES AFTER THE HOUR.

NMZ501-503-504-510>518-060100-
NORTHWEST PLATEAU/NORTHCENTRAL MOUNTAINS

CITY           SKY/WX    TMP DP  RH WIND       PRES   REMARKS
FARMINGTON     FAIR      40  17  39 W7        29.84S
6HR MIN TEMP:  38; 6HR MAX TEMP:  49;

LOS ALAMOS     FAIR      44   5  20 W9G16     29.83R
SANTA FE       FAIR      45   9  23 NW10      29.80R
6HR MIN TEMP:  45; 6HR MAX TEMP:  52;

TAOS           FAIR      37  16  41 SW10      29.82R WCI  30
ANGEL FIRE     FAIR      33  13  43 SW16      29.85R WCI  23

$$
NMZ402-403-502-505>509-060100-
WESTCENTRAL MOUNTAINS/SOUTHWEST MOUNTAINS

CITY           SKY/WX    TMP DP  RH WIND       PRES   REMARKS
GALLUP         FAIR      45  16  31 SW8       29.89R
6HR MIN TEMP:  45; 6HR MAX TEMP:  52;

GRANTS         FAIR      42  16  34 W9        29.89S

$$
NMZ407-409-411-412-060100-
SOUTHERN DESERTS

CITY           SKY/WX    TMP DP  RH WIND       PRES   REMARKS
DEMING         FAIR      56  24  29 W14       29.88R
6HR MIN TEMP:  52; 6HR MAX TEMP:  61;

LAS CRUCES     FAIR      56  18  22 W22G29    29.86S
HOLLOMAN AFB   FAIR      55  24  30 E6        29.84F
T OR C         FAIR      57  23  26 CALM      29.80R
6HR MIN TEMP:  46; 6HR MAX TEMP:  61;


$$
NMZ519>523-060100-
CENTRAL VALLEYS/CENTRAL HIGHLANDS

CITY           SKY/WX    TMP DP  RH WIND       PRES   REMARKS
ALBUQUERQUE    FAIR      53  17  24 NW6       29.81R
6HR MIN TEMP:  41; 6HR MAX TEMP:  54;

MORIARTY ARPT  FAIR      47  13  25 W13       29.82R
6HR MIN TEMP:  47; 6HR MAX TEMP:  55;

CLINES CORNERS FAIR      43  15  32 W26G36    29.77R
6HR MIN TEMP:  43; 6HR MAX TEMP:  51;

BELEN          FAIR      52  17  25 W8        29.82R
6HR MIN TEMP:  41; 6HR MAX TEMP:  60;

SOCORRO        NOT AVBL

$$
NMZ524>526-539-540-060100-
SOUTHCENTRAL MOUNTAINS

CITY           SKY/WX    TMP DP  RH WIND       PRES   REMARKS
RUIDOSO        NOT AVBL

$$
NMZ527>531-060100-
NORTHEAST HIGHLANDS/NORTHEAST PLAINS

CITY           SKY/WX    TMP DP  RH WIND       PRES   REMARKS
LAS VEGAS      FAIR      47  -3  12 NW17G31   29.71R
6HR MIN TEMP:  47; 6HR MAX TEMP:  59;

RATON          FAIR      48  -1  13 W21G36    29.69R
6HR MIN TEMP:  46; 6HR MAX TEMP:  61;

CLAYTON        FAIR      50  21  32 N9        29.62R
6HR MIN TEMP:  50; 6HR MAX TEMP:  71;


$$
NMZ532>537-060100-
EASTCENTRAL PLAINS

CITY           SKY/WX    TMP DP  RH WIND       PRES   REMARKS
TUCUMCARI      FAIR      54  18  24 SW9       29.59R
6HR MIN TEMP:  54; 6HR MAX TEMP:  70;

CANNON AFB     FAIR      58  21  23 SW21      29.64R
6HR MIN TEMP:  55; 6HR MAX TEMP:  67;

CLOVIS AIRPORT FAIR      59  19  21 W26       29.63R

$$
NMZ028-029-538-060100-
SOUTHEAST PLAINS

CITY           SKY/WX    TMP DP  RH WIND       PRES   REMARKS
ROSWELL        FAIR      57  36  45 NE5       29.71R
6HR MIN TEMP:  42; 6HR MAX TEMP:  63;

ARTESIA        FAIR      57  32  38 SW18      29.70S
CARLSBAD       FAIR      58  31  35 W25G32    29.69S
6HR MIN TEMP:  45; 6HR MAX TEMP:  66;

HOBBS          CLEAR     54  32  43 SW8       29.71S


$$



USA.gov is the U.S. government's official web portal to all federal, state and local government web resources and services.